timestamp,wind_dir_avg,wind_spd_avg,wind_spd_max_dir,wind_spd_gust,battery_voltage,lat,long
2023-09-20 00:04:00+00:00,130.0,6.82,128.0,8.07,12.41,47.59359,-54.27349
2023-09-20 00:14:01+00:00,131.0,6.84,128.0,7.83,12.41,47.59359,-54.27349
2023-09-20 00:24:01+00:00,125.0,6.8,127.0,7.6,12.41,47.59359,-54.27349
2023-09-20 00:34:01+00:00,125.0,6.89,128.0,7.72,12.41,47.59359,-54.27349
2023-09-20 00:44:01+00:00,133.0,6.02,137.0,7.1,12.41,47.59359,-54.27349
2023-09-20 00:54:01+00:00,124.0,7.22,125.0,8.29,12.41,47.59359,-54.27349
2023-09-20 01:04:01+00:00,124.0,7.3,125.0,8.24,12.41,47.59359,-54.27349
2023-09-20 01:14:00+00:00,124.0,6.64,123.0,7.45,12.41,47.59359,-54.27349
2023-09-20 01:24:00+00:00,132.0,6.56,124.0,7.54,12.41,47.59359,-54.27349
2023-09-20 01:34:00+00:00,142.0,8.63,143.0,9.76,12.41,47.59359,-54.27349
2023-09-20 01:44:00+00:00,141.0,7.82,141.0,8.67,12.41,47.59359,-54.27349
2023-09-20 01:54:00+00:00,133.0,6.68,138.0,8.27,12.41,47.59359,-54.27349
2023-09-20 02:04:00+00:00,134.0,7.22,137.0,9.01,12.41,47.59359,-54.27349
2023-09-20 02:14:01+00:00,141.0,8.03,139.0,9.17,12.41,47.59359,-54.27349
2023-09-20 02:24:01+00:00,141.0,9.44,145.0,10.64,12.41,47.59359,-54.27349
2023-09-20 02:34:01+00:00,139.0,9.18,137.0,10.59,12.41,47.59359,-54.27349
2023-09-20 02:44:01+00:00,143.0,10.02,145.0,11.23,12.41,47.59359,-54.27349
2023-09-20 02:54:01+00:00,135.0,9.11,134.0,11.11,12.41,47.59359,-54.27349
2023-09-20 03:04:01+00:00,135.0,9.14,137.0,10.46,12.41,47.59359,-54.27349
2023-09-20 03:14:00+00:00,135.0,7.04,131.0,8.0,12.41,47.59359,-54.27349
2023-09-20 03:24:00+00:00,141.0,6.42,135.0,7.6,12.41,47.59359,-54.27349
2023-09-20 03:34:00+00:00,137.0,7.28,135.0,8.61,12.41,47.59359,-54.27349
2023-09-20 03:44:00+00:00,139.0,8.71,141.0,10.22,12.41,47.59359,-54.27349
2023-09-20 03:54:00+00:00,145.0,11.35,145.0,14.3,12.41,47.59359,-54.27349
2023-09-20 04:04:00+00:00,156.0,8.98,157.0,10.23,12.41,47.59359,-54.27349
2023-09-20 04:14:01+00:00,156.0,11.1,157.0,12.41,12.41,47.59359,-54.27349
2023-09-20 04:24:01+00:00,161.0,10.8,169.0,12.22,12.41,47.59359,-54.27349
2023-09-20 04:34:01+00:00,174.0,9.89,176.0,11.55,12.41,47.59359,-54.27349
2023-09-20 04:44:01+00:00,173.0,7.98,173.0,9.14,12.41,47.59359,-54.27349
2023-09-20 04:54:01+00:00,183.0,12.21,177.0,13.75,12.41,47.59359,-54.27349
2023-09-20 05:04:01+00:00,194.0,11.73,207.0,13.49,12.41,47.59359,-54.27349
2023-09-20 05:14:01+00:00,184.0,12.08,184.0,13.58,12.41,47.59359,-54.27349
2023-09-20 05:24:01+00:00,198.0,13.5,200.0,15.59,12.41,47.59359,-54.27349
2023-09-20 05:34:01+00:00,196.0,14.44,193.0,16.49,12.41,47.59359,-54.27349
2023-09-20 05:44:01+00:00,200.0,12.74,202.0,14.36,12.41,47.59359,-54.27349
2023-09-20 05:54:01+00:00,196.0,13.53,194.0,15.38,12.41,47.59359,-54.27349
2023-09-20 06:04:01+00:00,198.0,12.8,202.0,14.09,12.41,47.59359,-54.27349
2023-09-20 06:14:00+00:00,198.0,12.75,197.0,14.18,12.33,47.59359,-54.27349
2023-09-20 06:24:00+00:00,201.0,12.66,200.0,14.09,12.33,47.59359,-54.27349
2023-09-20 06:34:00+00:00,205.0,13.61,205.0,14.84,12.33,47.59359,-54.27349
2023-09-20 06:44:00+00:00,199.0,11.22,208.0,12.68,12.33,47.59359,-54.27349
2023-09-20 06:54:00+00:00,209.0,10.74,203.0,12.95,12.33,47.59359,-54.27349
2023-09-20 07:04:00+00:00,214.0,11.17,218.0,12.33,12.33,47.59359,-54.27349
2023-09-20 07:14:01+00:00,215.0,11.12,217.0,12.73,12.25,47.59359,-54.27349
2023-09-20 07:24:01+00:00,214.0,11.49,216.0,13.32,12.25,47.59359,-54.27349
2023-09-20 07:34:01+00:00,214.0,11.8,221.0,14.67,12.25,47.59359,-54.27349
2023-09-20 07:44:01+00:00,215.0,10.6,212.0,12.23,12.25,47.59359,-54.27349
2023-09-20 07:54:01+00:00,214.0,9.78,214.0,11.14,12.25,47.59359,-54.27349
2023-09-20 08:04:01+00:00,212.0,10.57,215.0,12.12,12.25,47.59359,-54.27349
2023-09-20 08:14:00+00:00,214.0,9.16,206.0,10.71,12.25,47.59359,-54.27349
2023-09-20 08:24:00+00:00,216.0,8.6,216.0,10.04,12.25,47.59359,-54.27349
2023-09-20 08:34:00+00:00,214.0,7.59,215.0,8.51,12.25,47.59359,-54.27349
2023-09-20 08:44:00+00:00,218.0,6.83,224.0,7.8,12.25,47.59359,-54.27349
2023-09-20 08:54:00+00:00,235.0,6.66,235.0,7.85,12.25,47.59359,-54.27349
2023-09-20 09:04:00+00:00,243.0,6.34,246.0,7.1,12.25,47.59359,-54.27349
2023-09-20 09:14:00+00:00,252.0,6.28,254.0,6.84,12.25,47.59359,-54.27349
2023-09-20 09:24:00+00:00,256.0,5.72,262.0,6.56,12.25,47.59359,-54.27349
2023-09-20 09:34:00+00:00,266.0,8.24,267.0,9.23,12.25,47.59359,-54.27349
2023-09-20 09:44:00+00:00,255.0,7.98,257.0,9.03,12.25,47.59359,-54.27349
2023-09-20 09:54:00+00:00,263.0,6.94,267.0,7.86,12.25,47.59359,-54.27349
2023-09-20 10:04:00+00:00,254.0,7.01,258.0,8.2,12.25,47.59359,-54.27349
2023-09-20 10:14:00+00:00,244.0,8.88,242.0,10.9,12.25,47.59359,-54.27349
2023-09-20 10:24:00+00:00,253.0,9.86,256.0,11.25,12.25,47.59359,-54.27349
2023-09-20 10:34:00+00:00,241.0,9.53,243.0,10.84,12.25,47.59359,-54.27349
2023-09-20 10:44:00+00:00,239.0,9.2,235.0,10.37,12.25,47.59359,-54.27349
2023-09-20 10:54:00+00:00,235.0,8.02,233.0,8.95,12.25,47.59359,-54.27349
2023-09-20 11:04:00+00:00,234.0,6.58,235.0,7.45,12.25,47.59359,-54.27349
2023-09-20 11:14:01+00:00,245.0,8.32,243.0,9.52,12.57,47.59359,-54.27349
2023-09-20 11:24:01+00:00,242.0,8.05,242.0,9.39,12.57,47.59359,-54.27349
2023-09-20 11:34:01+00:00,235.0,6.74,235.0,8.6,12.57,47.59359,-54.27349
2023-09-20 11:44:01+00:00,225.0,6.18,231.0,8.05,12.57,47.59359,-54.27349
2023-09-20 11:54:01+00:00,225.0,7.22,233.0,8.56,12.57,47.59359,-54.27349
2023-09-20 12:04:01+00:00,239.0,8.59,242.0,9.55,12.57,47.59359,-54.27349
2023-09-20 12:14:01+00:00,253.0,7.68,254.0,8.66,13.05,47.59359,-54.27349
2023-09-20 12:24:01+00:00,238.0,8.52,237.0,9.55,13.05,47.59359,-54.27349
2023-09-20 12:34:01+00:00,226.0,6.76,227.0,7.68,13.05,47.59359,-54.27349
2023-09-20 12:44:01+00:00,237.0,8.07,235.0,9.16,13.05,47.59359,-54.27349
2023-09-20 12:54:01+00:00,244.0,8.65,241.0,9.34,13.05,47.59359,-54.27349
2023-09-20 13:04:01+00:00,248.0,9.59,250.0,12.0,13.05,47.59359,-54.27349
2023-09-20 13:14:01+00:00,244.0,8.56,244.0,9.63,13.37,47.59359,-54.27349
2023-09-20 13:24:01+00:00,229.0,7.52,223.0,9.18,13.37,47.59359,-54.27349
2023-09-20 13:34:01+00:00,234.0,7.94,230.0,8.96,13.37,47.59359,-54.27349
2023-09-20 13:44:01+00:00,231.0,6.77,231.0,8.08,13.37,47.59359,-54.27349
2023-09-20 13:54:01+00:00,233.0,7.89,238.0,9.38,13.37,47.59359,-54.27349
2023-09-20 14:04:01+00:00,233.0,6.9,236.0,7.88,13.37,47.59359,-54.27349
2023-09-20 14:14:00+00:00,228.0,7.05,226.0,8.74,13.68,47.59359,-54.27349
2023-09-20 14:24:00+00:00,221.0,7.14,225.0,8.11,13.68,47.59359,-54.27349
2023-09-20 14:34:00+00:00,215.0,7.57,206.0,8.41,13.68,47.59359,-54.27349
2023-09-20 14:44:00+00:00,216.0,7.51,217.0,8.67,13.68,47.59359,-54.27349
2023-09-20 14:54:00+00:00,215.0,8.57,220.0,9.71,13.68,47.59359,-54.27349
2023-09-20 15:04:00+00:00,212.0,9.03,213.0,10.02,13.68,47.59359,-54.27349
2023-09-20 15:14:00+00:00,213.0,8.58,216.0,9.98,13.76,47.59359,-54.27349
2023-09-20 15:24:00+00:00,212.0,8.58,205.0,9.54,13.76,47.59359,-54.27349
2023-09-20 15:34:00+00:00,209.0,7.33,207.0,8.67,13.76,47.59359,-54.27349
2023-09-20 15:44:00+00:00,213.0,8.43,217.0,9.16,13.76,47.59359,-54.27349
2023-09-20 15:54:00+00:00,214.0,7.76,211.0,8.73,13.76,47.59359,-54.27349
2023-09-20 16:04:00+00:00,214.0,7.84,216.0,8.96,13.76,47.59359,-54.27349
2023-09-20 16:14:00+00:00,212.0,8.81,223.0,10.97,14.24,47.59359,-54.27349
2023-09-20 16:24:00+00:00,213.0,9.19,218.0,10.38,14.24,47.59359,-54.27349
2023-09-20 16:34:00+00:00,213.0,8.3,220.0,9.17,14.24,47.59359,-54.27349
2023-09-20 16:44:00+00:00,214.0,8.83,217.0,9.9,14.24,47.59359,-54.27349
2023-09-20 16:54:00+00:00,213.0,9.03,215.0,9.9,14.24,47.59359,-54.27349
2023-09-20 17:04:00+00:00,213.0,8.03,214.0,8.78,14.24,47.59359,-54.27349
2023-09-20 17:14:01+00:00,211.0,7.77,216.0,9.04,14.0,47.59359,-54.27349
2023-09-20 17:24:01+00:00,214.0,8.5,213.0,9.9,14.0,47.59359,-54.27349
2023-09-20 17:34:01+00:00,214.0,9.1,213.0,9.95,14.0,47.59359,-54.27349
2023-09-20 17:44:01+00:00,213.0,8.5,216.0,9.71,14.0,47.59359,-54.27349
2023-09-20 17:54:01+00:00,217.0,7.97,217.0,8.98,14.0,47.59359,-54.27349
2023-09-20 18:04:01+00:00,214.0,9.26,216.0,10.09,14.0,47.59359,-54.27349
2023-09-20 18:14:00+00:00,213.0,9.4,212.0,10.57,13.6,47.59359,-54.27349
2023-09-20 18:24:00+00:00,212.0,9.41,212.0,10.28,13.6,47.59359,-54.27349
2023-09-20 18:34:00+00:00,219.0,9.52,219.0,10.53,13.6,47.59359,-54.27349
2023-09-20 18:44:00+00:00,214.0,8.39,216.0,9.38,13.6,47.59359,-54.27349
2023-09-20 18:54:00+00:00,215.0,8.72,216.0,9.56,13.6,47.59359,-54.27349
2023-09-20 19:04:00+00:00,213.0,8.99,214.0,10.01,13.6,47.59359,-54.27349
2023-09-20 19:14:00+00:00,216.0,8.41,217.0,9.2,13.53,47.59359,-54.27349
2023-09-20 19:24:00+00:00,214.0,9.71,214.0,10.59,13.53,47.59359,-54.27349
2023-09-20 19:34:00+00:00,217.0,8.61,216.0,9.71,13.53,47.59359,-54.27349
2023-09-20 19:44:00+00:00,209.0,7.8,212.0,8.5,13.53,47.59359,-54.27349
2023-09-20 19:54:00+00:00,217.0,8.16,218.0,9.74,13.53,47.59359,-54.27349
2023-09-20 20:04:00+00:00,213.0,6.8,216.0,8.06,13.53,47.59359,-54.27349
2023-09-20 20:14:01+00:00,212.0,7.63,214.0,8.53,13.37,47.59359,-54.27349
2023-09-20 20:24:01+00:00,211.0,6.49,214.0,7.64,13.37,47.59359,-54.27349
2023-09-20 20:34:01+00:00,211.0,7.67,211.0,8.6,13.37,47.59359,-54.27349
2023-09-20 20:44:01+00:00,214.0,7.25,212.0,8.32,13.37,47.59359,-54.27349
2023-09-20 20:54:01+00:00,214.0,7.51,217.0,8.37,13.37,47.59359,-54.27349
2023-09-20 21:04:01+00:00,213.0,8.04,212.0,8.93,13.37,47.59359,-54.27349
2023-09-20 21:14:00+00:00,221.0,7.07,223.0,7.87,12.89,47.59359,-54.27349
2023-09-20 21:24:00+00:00,225.0,5.68,222.0,6.5,12.89,47.59359,-54.27349
2023-09-20 21:34:00+00:00,225.0,6.17,218.0,6.98,12.89,47.59359,-54.27349
2023-09-20 21:44:00+00:00,225.0,6.87,225.0,7.93,12.89,47.59359,-54.27349
2023-09-20 21:54:00+00:00,225.0,7.24,232.0,8.46,12.89,47.59359,-54.27349
2023-09-20 22:04:00+00:00,227.0,7.99,223.0,9.27,12.89,47.59359,-54.27349
2023-09-20 22:14:01+00:00,232.0,7.57,226.0,9.21,12.49,47.59359,-54.27349
2023-09-20 22:24:01+00:00,233.0,7.5,233.0,8.99,12.49,47.59359,-54.27349
2023-09-20 22:34:01+00:00,235.0,7.35,236.0,8.22,12.49,47.59359,-54.27349
2023-09-20 22:44:01+00:00,235.0,8.62,237.0,9.37,12.49,47.59359,-54.27349
2023-09-20 22:54:01+00:00,238.0,7.88,237.0,8.64,12.49,47.59359,-54.27349
2023-09-20 23:04:01+00:00,242.0,7.46,240.0,8.36,12.49,47.59359,-54.27349
2023-09-20 23:14:00+00:00,248.0,5.93,243.0,6.49,12.41,47.59359,-54.27349
2023-09-20 23:24:00+00:00,248.0,6.09,247.0,7.02,12.41,47.59359,-54.27349
2023-09-20 23:34:00+00:00,242.0,5.54,244.0,6.17,12.41,47.59359,-54.27349
2023-09-20 23:44:00+00:00,245.0,5.25,251.0,6.02,12.41,47.59359,-54.27349
2023-09-20 23:54:00+00:00,242.0,5.57,244.0,6.28,12.41,47.59359,-54.27349
